| time (UTC) | temp F | wind direction | speed knots | gust knots | rain 1hr in | rain 24hr in | rain mn in | humidity % | barometer mb |
| 20260506221501 | 67 | 193 | 0.0 | 0.0 | 0.00 | 0.16 | 0.16 | 86 | 1008.9 |
| 20260506220001 | 68 | 269 | 0.0 | 0.0 | 0.00 | 0.16 | 0.16 | 85 | 1008.8 |
| 20260506214505 | 68 | 237 | 0.0 | 0.0 | 0.00 | 0.16 | 0.16 | 84 | 1008.5 |
| 20260506213124 | 68 | 271 | 0.0 | 0.0 | 0.00 | 0.16 | 0.16 | 85 | 1008.3 |
| 20260506211559 | 68 | 213 | 0.0 | 0.0 | 0.00 | 0.16 | 0.16 | 85 | 1008.4 |
| 20260506210059 | 67 | 255 | 0.0 | 0.0 | 0.00 | 0.16 | 0.16 | 87 | 1008.3 |
| 20260506204558 | 66 | 293 | 0.0 | 0.0 | 0.00 | 0.16 | 0.16 | 87 | 1008.4 |
| 20260506203058 | 66 | 250 | 0.0 | 0.0 | 0.00 | 0.16 | 0.16 | 87 | 1008.3 |
| 20260506201557 | 66 | 269 | 0.0 | 0.0 | 0.00 | 0.16 | 0.16 | 88 | 1008.3 |
| 20260506200056 | 65 | 255 | 0.0 | 0.0 | 0.00 | 0.16 | 0.16 | 89 | 1008.1 |
| 20260506194557 | 65 | 278 | 0.0 | 0.0 | 0.00 | 0.16 | 0.16 | 89 | 1008.3 |
| 20260506193053 | 65 | 283 | 0.0 | 0.0 | 0.00 | 0.16 | 0.16 | 88 | 1008.6 |
| 20260506191552 | 65 | 263 | 0.0 | 0.0 | 0.00 | 0.16 | 0.16 | 89 | 1008.6 |
| 20260506190052 | 64 | 276 | 0.0 | 0.0 | 0.00 | 0.16 | 0.16 | 92 | 1008.7 |
| 20260506184552 | 62 | 243 | 0.0 | 0.0 | 0.00 | 0.16 | 0.16 | 93 | 1008.8 |
| 20260506183055 | 62 | 264 | 0.0 | 0.0 | 0.00 | 0.16 | 0.16 | 94 | 1009.0 |
| 20260506181610 | 61 | 205 | 0.0 | 0.0 | 0.00 | 0.16 | 0.16 | 94 | 1009.2 |
| 20260506180044 | 61 | 260 | 0.0 | 0.0 | 0.00 | 0.16 | 0.16 | 94 | 1009.5 |
| 20260506174543 | 61 | 200 | 0.0 | 0.0 | 0.00 | 0.16 | 0.16 | 94 | 1009.4 |
| 20260506173055 | 61 | 247 | 0.0 | 0.0 | 0.00 | 0.16 | 0.16 | 94 | 1009.2 |
| 20260506171541 | 61 | 214 | 0.0 | 0.0 | 0.00 | 0.16 | 0.16 | 94 | 1009.4 |
| 20260506170042 | 61 | 311 | 0.0 | 0.0 | 0.00 | 0.16 | 0.16 | 93 | 1009.3 |
| 20260506164543 | 60 | 227 | 0.0 | 0.0 | 0.01 | 0.16 | 0.16 | 93 | 1009.5 |
| 20260506163042 | 60 | 195 | 0.0 | 0.0 | 0.03 | 0.16 | 0.16 | 94 | 1009.6 |
| 20260506161539 | 60 | 188 | 0.0 | 0.0 | 0.05 | 0.16 | 0.16 | 94 | 1009.7 |
| 20260506160044 | 61 | 188 | 0.0 | 0.0 | 0.07 | 0.16 | 0.16 | 95 | 1009.3 |
| 20260506154538 | 60 | 324 | 0.0 | 0.0 | 0.08 | 0.15 | 0.15 | 94 | 1009.9 |
| 20260506153045 | 60 | 237 | 0.0 | 0.0 | 0.07 | 0.13 | 0.13 | 94 | 1010.4 |
| 20260506151539 | 60 | 238 | 0.0 | 0.0 | 0.05 | 0.10 | 0.10 | 94 | 1010.6 |
| 20260506150033 | 60 | 164 | 0.0 | 0.0 | 0.06 | 0.09 | 0.09 | 93 | 1010.4 |
| 20260506144530 | 60 | 178 | 0.0 | 0.0 | 0.06 | 0.07 | 0.07 | 93 | 1010.3 |
| 20260506143128 | 61 | 207 | 0.0 | 0.0 | 0.06 | 0.06 | 0.06 | 93 | 1010.3 |
| 20260506141526 | 61 | 269 | 0.0 | 0.0 | 0.05 | 0.05 | 0.05 | 92 | 1010.5 |
| 20260506140125 | 61 | 203 | 0.0 | 0.0 | 0.03 | 0.03 | 0.03 | 91 | 1010.3 |
| 20260506134521 | 62 | 169 | 0.0 | 0.0 | 0.01 | 0.01 | 0.01 | 89 | 1010.5 |
| 20260506133021 | 62 | 197 | 0.0 | 0.0 | 0.00 | 0.00 | 0.00 | 87 | 1010.3 |
| 20260506131526 | 63 | 215 | 0.0 | 0.0 | 0.00 | 0.00 | 0.00 | 86 | 1010.3 |
| 20260506130019 | 63 | 248 | 0.0 | 0.0 | 0.00 | 0.00 | 0.00 | 85 | 1010.4 |
| 20260506124515 | 63 | 270 | 0.0 | 0.0 | 0.00 | 0.00 | 0.00 | 85 | 1010.6 |
| 20260506123016 | 63 | 207 | 0.0 | 0.0 | 0.00 | 0.00 | 0.00 | 84 | 1010.7 |
| 20260506121515 | 64 | 242 | 0.0 | 0.0 | 0.00 | 0.00 | 0.00 | 83 | 1010.6 |
| 20260506120019 | 64 | 249 | 0.0 | 0.0 | 0.00 | 0.00 | 0.00 | 83 | 1010.4 |
| 20260506114520 | 64 | 250 | 0.0 | 0.0 | 0.00 | 0.00 | 0.00 | 83 | 1010.1 |
| 20260506113024 | 64 | 255 | 0.0 | 0.0 | 0.00 | 0.00 | 0.00 | 83 | 1010.0 |
| 20260506111513 | 63 | 224 | 0.0 | 0.0 | 0.00 | 0.00 | 0.00 | 83 | 1009.8 |
| 20260506110013 | 63 | 278 | 0.0 | 0.0 | 0.00 | 0.00 | 0.00 | 84 | 1009.9 |
| 20260506104510 | 63 | 206 | 0.0 | 0.0 | 0.00 | 0.00 | 0.00 | 84 | 1009.8 |
| 20260506103012 | 63 | 234 | 0.0 | 0.0 | 0.00 | 0.00 | 0.00 | 84 | 1009.7 |
| 20260506101508 | 0 | 0.0 | 0.0 | 0.00 | 0.00 | 0.00 | 1009.8 | ||
| 20260506100100 | 0 | 0.0 | 0.0 | 0.00 | 0.00 | 0.00 | 1009.7 | ||
| 20260506094556 | 0 | 0.0 | 0.0 | 0.00 | 0.00 | 0.00 | 1009.6 | ||
| 20260506093052 | 0 | 0.0 | 0.0 | 0.00 | 0.00 | 0.00 | 1009.6 | ||
| 20260506091554 | 0 | 216 | 0.0 | 0.0 | 0.00 | 0.00 | 0.00 | 80 | 1009.8 |
| 20260506090047 | 65 | 191 | 0.0 | 0.0 | 0.00 | 0.00 | 0.00 | 80 | 1009.9 |
| 20260506084546 | 65 | 233 | 0.0 | 0.0 | 0.00 | 0.00 | 0.00 | 79 | 1009.8 |
| 20260506083040 | 65 | 266 | 0.0 | 0.0 | 0.00 | 0.00 | 0.00 | 79 | 1009.7 |
| 20260506081538 | 66 | 160 | 0.0 | 0.0 | 0.00 | 0.00 | 0.00 | 78 | 1009.8 |
| 20260506073034 | 66 | 243 | 0.0 | 0.0 | 0.00 | 0.00 | 0.00 | 76 | 1010.0 |
| 20260506071532 | 66 | 210 | 0.0 | 0.0 | 0.00 | 0.00 | 0.00 | 75 | 1010.1 |
| 20260506061525 | 67 | 11 | 0.0 | 0.0 | 0.00 | 0.00 | 0.00 | 71 | 1010.7 |
| 20260506044515 | 68 | 198 | 0.0 | 0.0 | 0.00 | 0.00 | 0.00 | 67 | 1011.2 |
| 20260506043015 | 67 | 235 | 0.0 | 0.0 | 0.00 | 0.00 | 0.00 | 67 | 1011.2 |
| 20260506041512 | 67 | 240 | 0.0 | 0.0 | 0.00 | 0.00 | 0.00 | 67 | 1011.2 |
| 20260506040010 | 67 | 241 | 0.0 | 0.0 | 0.00 | 0.00 | 0.00 | 67 | 1011.3 |
| 20260506034518 | 67 | 174 | 0.0 | 0.0 | 0.00 | 0.00 | 0.00 | 67 | 1011.2 |
| 20260506033007 | 67 | 245 | 0.0 | 0.0 | 0.00 | 0.00 | 0.00 | 67 | 1011.2 |
| 20260506031506 | 67 | 214 | 0.0 | 0.0 | 0.00 | 0.00 | 0.00 | 67 | 1011.1 |
| 20260506030022 | 68 | 129 | 0.0 | 0.0 | 0.00 | 0.00 | 0.00 | 66 | 1011.2 |
| 20260506024510 | 68 | 284 | 0.0 | 0.0 | 0.00 | 0.00 | 0.00 | 66 | 1011.2 |
| 20260506023011 | 68 | 193 | 0.0 | 0.0 | 0.00 | 0.00 | 0.00 | 65 | 1011.2 |
| 20260506021504 | 68 | 250 | 0.0 | 0.0 | 0.00 | 0.00 | 0.00 | 64 | 1011.2 |
| 20260506020003 | 68 | 209 | 0.0 | 0.0 | 0.00 | 0.00 | 0.00 | 64 | 1011.3 |
| 20260506014502 | 69 | 179 | 0.0 | 0.0 | 0.00 | 0.00 | 0.00 | 63 | 1011.1 |
| 20260506013001 | 70 | 217 | 0.0 | 0.0 | 0.00 | 0.00 | 0.00 | 61 | 1010.9 |
| 20260506011610 | 70 | 140 | 0.0 | 0.0 | 0.00 | 0.00 | 0.00 | 60 | 1010.7 |
| 20260506010059 | 70 | 153 | 0.0 | 0.0 | 0.00 | 0.00 | 0.00 | 58 | 1010.4 |
| 20260506004558 | 71 | 262 | 0.0 | 0.0 | 0.00 | 0.00 | 0.00 | 56 | 1010.4 |
| 20260506003058 | 72 | 154 | 0.0 | 0.0 | 0.00 | 0.00 | 0.00 | 54 | 1010.3 |
| 20260506001557 | 73 | 209 | 0.0 | 0.0 | 0.00 | 0.00 | 0.00 | 53 | 1010.1 |
| 20260506000058 | 73 | 210 | 0.0 | 0.0 | 0.00 | 0.00 | 0.00 | 52 | 1009.9 |
| 20260505234557 | 74 | 196 | 0.0 | 0.0 | 0.00 | 0.00 | 0.00 | 51 | 1009.7 |
| 20260505233053 | 75 | 229 | 0.0 | 0.0 | 0.00 | 0.00 | 0.00 | 50 | 1009.6 |
| 20260505231553 | 75 | 237 | 0.0 | 0.0 | 0.00 | 0.00 | 0.00 | 49 | 1009.7 |
| 20260505224552 | 77 | 243 | 0.0 | 0.0 | 0.00 | 0.00 | 0.00 | 48 | 1009.6 |
| 20260505223059 | 78 | 233 | 0.0 | 0.0 | 0.00 | 0.00 | 0.00 | 46 | 1009.6 |